Reflectivity
-20 -20 -20 -20 -20 -20 -20 -20 -20 -20 -20 -20 -20 -20 -20 -20 -20 -20 -20 -20 -20 -20 -20 -20 -20 -20 -20 -20 -20 -20 -20 -20 -20 -20 -20 -20 -20 -20 -20 -20 -20 -3 -20 -20 -20 -20 -20 -20 -20
-20 -20 -20 -20 -20 -10 -20 -20 -20 -20 -20 -20 -20 -20 -20 -20 -20 -20 -20 -20 -20 -20 -20 -20 -20 -20 -20 -20 -20 -20 -20 -20 -20 -20 -20 -20 -20 -20 -20 -20 -20 -20 -20 -20 -20 -20 -20 -20 -20
-20 -20 -20 -20 -20 -20 -20 -20 -20 -20 -20 -20 -20 -20 -20 -20 -20 -20 -20 -20 -20 -20 -20 -20 -20 -20 -20 -20 -20 -20 -20 -20 -20 -20 -20 -20 -20 -20 -20 -20 -20 -20 -20 -20 -20 -20 -20 -20 -20
-20 -20 -20 -20 -20 -20 -20 -20 -20 -20 -20 -20 -20 -20 -20 -20 -20 -20 -20 -20 -20 -20 -20 -20 -20 -20 -20 -20 -20 -20 -20 -20 -20 -20 -20 -20 -20 -20 -20 -20 -20 -20 -20 -20 -20 -20 -20 -20 -20
-20 -20 -20 -20 -20 -20 -20 -20 -20 -20 -20 -20 -20 -20 -20 -20 -20 -20 -20 -20 -20 -20 -20 -20 -20 -20 -20 -20 -20 -20 -20 -20 -20 -20 -20 -20 -20 -20 -20 -20 -20 -20 -20 -20 -20 -20 -20 -20 -20
-20 -20 -20 -20 -20 -20 -20 -20 -20 -20 -20 -20 -20 -20 -20 -20 -20 -20 -20 -20 -20 -20 -20 -20 -20 -20 -20 -20 -20 -20 -20 -20 -20 -20 -20 -20 -20 -20 -20 -20 -20 -20 -20 -20 -20 -20 -20 -20 -20
-20 -20 -20 -20 -20 -20 -20 -20 -20 -20 -20 -20 -20 -20 -20 -20 -20 -20 -20 -20 -20 -20 -20 -20 -20 -20 -20 -20 -20 -20 -20 -20 -20 -20 -20 -20 -20 -20 -20 -20 -20 -20 -20 -20 -20 -20 -20 -20 -20
-20 -20 -20 -20 -20 -20 -20 -20 -20 -20 -20 -20 -20 -20 -20 -20 -20 -20 -20 -20 -20 -20 -20 -20 -20 -20 -20 -20 -20 -20 -20 -20 -20 -20 -20 -20 -20 -20 -20 -20 -20 -20 -20 -20 -20 -20 -20 -20 -20
-20 -20 -20 -20 -20 -20 -20 -20 -20 -20 -20 -20 -20 -20 -20 -20 -20 -20 -20 -20 -20 -20 -20 -20 -20 -20 -20 -20 -20 -20 -20 -20 -20 -20 -20 -20 -20 -20 -20 -20 -20 -20 -20 -20 -20 -20 -20 -20 -20
-20 -20 -20 -20 -20 -20 -20 -20 -20 -20 -20 -20 -20 -20 -20 -20 -20 -20 -20 -20 -20 -20 -20 -20 -20 -20 -20 -20 -20 -20 -20 -20 -20 -20 -20 -20 -20 -20 -20 -20 -20 -20 -20 -20 -20 -20 -20 -20 -20
-20 -20 -20 -20 -20 -20 -20 -20 -20 -20 -20 -20 -20 -20 -20 -20 -20 -20 -20 -20 -20 -20 -20 -20 -20 -20 -20 -20 -20 -20 -20 -20 -20 -20 -20 -20 -20 -20 -20 -20 -20 -20 -20 -20 -20 -20 -20 -20 -20
-20 -20 -20 -20 -20 -20 -20 -20 -20 -20 -20 -20 -20 -20 -20 -20 -20 -20 -20 -20 -20 -20 -20 -20 -20 -20 -20 -20 -20 -20 -20 -20 -20 -20 -20 -20 -20 -20 -20 -20 -20 -20 -20 -20 -20 -20 -20 -20 -20
-20 -20 -20 -20 -20 -20 -20 -20 -20 -20 -20 -20 -20 -20 -20 -20 -20 -20 -20 -20 -20 -20 -20 -20 -20 -20 -20 -20 -20 -20 -20 -20 -20 -20 -20 -20 -20 -20 -20 -20 -20 -20 -20 -20 -20 -20 -20 -20 -20
-20 -20 -20 -20 -20 -20 -20 -20 -20 -20 -20 -20 -20 -20 -20 -20 -20 -20 -20 -20 -20 -20 -20 -20 -20 -20 -20 -20 -20 -20 -20 -20 -20 -20 -20 -20 -20 -20 -20 -20 -20 -20 -20 -20 -20 -20 -20 -20 -20
-20 -20 -20 -20 -20 -20 -20 -20 -20 -20 -20 -20 -20 -20 -20 -20 -20 -20 -20 -20 -20 -20 -20 -20 -20 -20 -20 -20 -20 -20 -20 -20 -20 -20 -20 -20 -20 -20 -20 -20 -20 -20 -20 -20 -20 -20 -20 -20 -20
-20 -20 -20 -20 -20 -20 -20 -20 -20 -20 -20 -20 -20 -20 -20 -20 -20 -20 -20 -20 -20 -20 -20 -20 -20 -20 -20 -20 -20 -20 -20 -20 -20 -20 -20 -20 -20 -20 -20 -20 -20 -20 -20 -20 -20 -20 -20 -20 -20
-20 -20 -20 -20 -20 -20 -20 -20 -20 -20 -20 -20 -20 -20 -20 -20 -20 -20 -20 -20 -20 -20 -20 -20 -20 -20 -20 -20 -20 -20 -20 -20 -20 -20 -20 -20 -20 -20 -20 -20 -20 -20 -20 -20 -20 -20 -20 -20 -20
-20 -20 -20 -20 -20 -20 -20 -20 -20 -20 -20 -20 -20 -20 -20 -20 -20 -20 -20 -20 -20 -20 -20 -20 -20 -20 -20 -20 -20 -20 -20 -20 -20 -20 -20 -20 -20 -20 -20 -20 -20 -20 -20 -20 -20 -20 -20 -20 -20
-20 -20 -20 -20 -20 -20 -20 -20 -20 -20 -20 -20 -20 -20 -20 -20 -20 -20 -20 -20 -20 -20 -20 -20 -20 -20 -20 -20 -20 -20 -20 -20 -20 -20 -20 -20 -20 -20 -20 -20 -20 -20 -20 -18 -20 -20 -20 -20 -20
-20 -20 -20 -20 -20 -20 -20 -20 -20 -20 -20 -20 -20 -20 -20 -20 -20 -20 -20 -20 -20 -20 -20 -20 -20 -20 -20 -20 -20 -20 -20 -20 -20 -20 -20 -20 -20 -20 -20 -20 -20 -20 -20 -20 -20 -20 -20 -20 -20
-20 -20 -20 -20 -20 -20 -20 -20 -20 -20 -20 -20 -20 -20 -20 -20 -20 -20 -20 -20 -20 -20 -20 -20 -20 -20 -20 -20 -20 -20 -20 -20 -20 -20 -20 -20 -20 -20 -20 -20 -20 -20 -20 -20 11 -15 -19 -20 -20
-20 -20 -20 -20 -20 -20 -20 -20 -20 -20 -20 -20 -20 -20 -20 -20 -20 -20 -20 -20 -20 -20 -20 -20 -20 -20 -20 -20 -20 -20 -20 -20 -20 -20 -20 2 0 -15 -19 -20 -20 -20 -20 -20 -20 -4 -20 -20 -20
-20 -20 -20 -20 -20 -20 -20 -20 -20 -20 -20 -20 -20 -20 -20 -20 -20 -20 -20 -20 -20 -20 -20 -20 -20 -20 -20 -20 -20 -20 -20 -20 -20 -20 10 22 15 6 10 -14 -9 -20 -20 -20 -20 -20 -20 -20 2
-20 -20 -20 -20 -20 -20 -20 -20 -20 -20 -20 -20 -20 -20 -20 -20 -20 -20 -20 -20 -20 -20 -20 -20 -20 -20 -20 -20 -20 -20 -20 -20 -11 3 -12 -13 -8 16 5 -20 -19 22 -20 7 4 9 4 4 -16
-3 -20 -20 -20 -20 -20 -20 -20 -20 -20 -20 -20 -20 -20 -20 -20 -20 -20 -20 -20 -20 -20 -20 -20 -20 -20 -20 -20 -20 -20 -20 -5 -10 8 16 -16 1 -15 -6 -20 0 23 -14 25 13 15 23 11 11
-15 -20 -20 -20 -20 -20 -20 -20 -20 -20 -20 -20 -20 -20 -20 -20 -20 -20 -20 -20 -20 -20 -20 -20 -20 -20 -20 -20 -20 -20 -20 -20 -6 13 14 15 17 -19 -3 8 5 -20 -5 26 14 -7 19 21 3
6 -18 -20 -20 -20 -20 -20 -20 -20 -20 -20 -20 -20 -20 -20 -20 -20 -20 -20 -20 -20 -20 -20 -20 -20 -20 -20 -20 -20 -20 -20 -20 -20 -20 -20 -20 -20 -20 16 17 12 17 20 17 18 24 15 -6 5
-7 1 -1 -11 -11 -19 -20 -20 -20 -20 -20 -20 -20 -20 -20 -20 -20 -20 -20 -20 -20 -20 -20 -20 -20 -20 -20 -20 -20 -20 -20 -20 -20 -20 -16 5 -20 1 -9 15 16 14 27 20 24 21 25 -20 -20
-18 -20 -16 -16 -20 -20 -20 -20 -20 -20 -20 -20 -20 -20 -20 -20 -20 -20 -20 -20 -20 -20 -20 -20 -20 -20 -20 -20 -20 -20 -20 -20 -20 -20 -15 3 -6 12 16 20 17 18 14 24 18 -17 -20 -20 -20
-14 -2 -20 -20 -20 -20 -20 -20 -20 -20 -20 -20 -20 -20 -20 -20 -20 -20 -20 -20 -20 -20 -20 -20 -20 -20 -20 -20 -20 -20 -20 -20 -20 -20 4 0 -13 11 22 25 26 16 24 -20 -20 -20 -20 -20 -20
Wind_Speed
6 7 3 3 5 5 5 7 5 12 9 6 11 17 12 5 7 9 5 16 18 15 12 13 16 17 16 16 15 14 14 15 14 13 12 12 12 12 12 11 12 11 13 14 15 15 14 13 11
5 7 2 2 4 3 7 3 12 9 6 13 17 15 14 9 8 14 8 15 16 16 11 12 15 16 16 16 15 14 14 14 14 13 12 12 11 11 11 11 11 12 12 14 14 14 12 10 10
4 3 3 4 4 5 4 6 10 8 7 3 6 10 8 9 9 5 17 18 17 13 12 12 15 16 16 16 16 14 13 13 14 13 13 12 11 11 11 10 10 11 12 14 15 13 10 8 9
4 5 5 2 7 10 5 6 11 9 4 9 16 7 6 7 6 11 20 20 17 13 12 13 15 16 16 16 16 15 14 12 12 12 13 12 12 11 10 10 10 10 11 14 13 12 9 6 7
0 2 2 4 8 6 1 4 7 6 5 4 17 6 6 5 18 19 20 17 17 12 12 12 13 15 16 16 16 14 14 13 13 12 11 12 12 11 10 10 9 9 11 12 13 11 10 7 6
3 2 3 6 7 7 3 5 2 6 6 10 12 10 5 12 17 15 16 16 15 15 13 12 14 14 14 15 14 13 13 13 13 12 12 12 11 11 11 10 10 10 10 10 10 10 9 7 2
5 2 6 7 13 8 4 7 4 3 7 4 15 7 9 8 11 14 15 15 15 15 13 11 10 11 13 12 13 13 12 12 12 12 12 11 11 11 11 11 10 10 9 9 9 8 8 7 2
4 3 9 6 8 5 4 3 3 10 5 2 6 6 11 11 12 12 13 14 14 12 12 12 10 9 8 9 12 13 13 12 12 11 11 11 11 12 10 11 11 10 9 9 9 9 7 4 2
2 1 6 7 3 5 2 4 5 4 7 6 5 8 13 14 15 13 12 10 11 9 11 12 11 9 9 9 10 12 14 13 12 12 11 9 4 6 9 8 11 12 10 10 9 7 6 5 5
5 4 11 7 4 3 3 7 3 3 2 6 14 18 16 16 13 15 14 12 12 14 13 14 14 12 10 9 9 8 9 8 7 8 9 6 6 5 8 8 11 11 12 10 8 8 7 5 3
8 9 14 13 4 6 5 4 5 3 2 3 14 17 18 12 14 17 17 20 22 18 13 15 15 16 14 10 7 5 5 6 6 8 8 6 6 7 5 3 4 4 8 4 5 4 3 4 4
5 11 11 10 5 3 5 7 7 5 7 1 2 12 12 13 15 16 18 18 17 19 17 16 16 15 16 8 9 8 7 7 6 8 10 6 4 6 5 5 6 5 4 6 5 4 5 6 6
9 10 10 11 6 6 5 5 6 7 6 6 6 4 9 11 13 12 15 15 18 19 19 19 18 16 15 12 10 10 9 8 9 8 10 9 5 7 6 7 7 6 6 5 5 5 5 6 6
9 9 9 8 6 5 3 5 2 5 7 6 7 9 8 11 12 8 9 10 14 20 21 20 20 18 16 15 15 11 10 10 9 9 10 12 8 6 8 8 8 7 7 6 6 7 6 5 5
11 8 9 5 4 4 3 8 9 10 10 9 11 10 11 11 10 10 10 9 9 20 23 22 21 19 18 17 12 11 10 11 10 10 12 14 11 7 10 8 8 8 7 9 7 7 4 5 5
8 5 7 3 6 9 4 12 13 12 9 12 12 10 9 10 11 10 9 9 7 14 21 20 17 20 19 17 13 11 11 10 11 10 10 15 14 9 9 9 9 9 8 8 6 5 6 7 5
5 6 7 7 12 10 11 13 10 13 10 12 11 9 8 8 8 8 10 8 9 16 19 19 19 20 20 17 13 10 12 11 11 10 11 14 15 14 8 9 8 9 8 8 8 4 3 4 4
6 5 10 10 11 15 20 13 8 10 5 8 8 8 7 7 9 7 10 10 10 11 19 21 18 20 19 12 11 9 5 9 8 11 9 14 14 14 9 7 9 8 7 7 5 5 3 3 5
7 11 12 8 20 8 15 11 13 13 6 8 9 10 10 12 12 9 7 10 10 8 16 19 18 15 14 10 11 8 12 4 7 6 14 10 14 16 13 7 6 5 8 9 10 5 6 5 4
18 16 20 12 13 6 9 11 9 10 7 9 11 11 12 9 9 10 10 8 9 9 13 15 16 14 14 11 11 7 9 5 5 6 6 12 12 15 13 9 7 7 5 6 8 7 4 2 4
17 20 13 12 19 9 3 6 6 7 5 7 10 11 9 12 13 10 10 9 7 10 11 11 14 16 14 13 6 3 4 2 3 5 8 9 13 13 14 9 9 8 7 6 5 6 7 5 3
17 12 12 14 8 9 6 7 7 7 12 15 18 13 16 13 8 9 11 6 10 8 8 9 10 9 8 12 12 15 12 11 9 8 6 6 9 13 14 11 8 9 6 8 6 5 4 5 4
19 9 11 11 7 3 17 3 6 7 10 12 10 11 13 11 10 11 11 8 8 8 8 7 6 5 6 8 12 11 10 5 4 4 8 5 5 9 10 9 7 7 7 7 8 7 6 4 4
18 13 18 11 3 6 13 10 9 11 10 9 14 10 14 10 10 6 9 14 10 7 8 7 4 3 5 6 8 15 12 8 6 5 6 5 5 6 6 7 8 6 6 8 6 5 7 6 4
16 5 8 6 7 16 7 10 19 6 16 20 21 13 9 10 10 14 16 12 9 9 8 6 7 3 3 6 8 8 10 11 11 10 8 6 4 3 7 7 5 5 4 4 5 5 4 5 5
20 14 8 13 12 15 10 15 13 19 24 17 12 18 10 8 13 12 12 11 10 9 8 8 5 4 5 6 6 6 6 4 5 7 7 8 7 6 7 6 5 6 5 5 5 4 3 4 4
25 17 21 12 9 0 6 11 9 22 17 14 13 10 11 12 12 12 10 11 11 9 9 9 6 4 3 4 4 5 5 6 6 7 5 7 7 8 9 9 9 7 7 7 6 4 5 4 4
24 15 15 11 18 20 8 12 9 4 11 16 12 12 10 10 12 10 11 12 8 9 8 8 7 5 4 5 5 5 6 6 6 8 7 7 6 8 9 9 8 8 7 7 6 5 5 6 3
22 20 11 5 10 14 14 16 9 12 5 5 10 8 10 10 11 10 12 10 11 9 9 8 7 7 5 5 5 6 6 7 7 7 7 8 8 9 9 9 9 9 8 7 7 6 6 6 5
28 26 23 12 10 19 19 15 1 12 8 4 2 8 7 10 9 12 15 14 13 12 10 8 6 7 6 5 6 7 7 8 8 8 9 9 9 8 9 7 8 7 6 6 7 7 6 6 5
Wind_Direction
316 298 138 357 39 81 263 312 124 78 53 93 81 90 94 74 96 132 114 115 124 130 140 138 135 134 137 133 131 130 127 125 123 117 111 103 99 95 94 96 102 102 100 100 100 97 94 95 87
338 316 87 263 87 354 269 95 91 106 131 109 105 105 83 85 83 120 101 130 126 130 136 136 136 138 139 136 135 134 134 132 127 122 118 113 108 102 99 102 103 104 106 107 105 102 99 94 94
308 189 59 142 181 203 260 140 123 127 142 78 77 92 100 127 113 120 128 133 126 129 132 139 139 142 140 141 139 138 139 136 132 129 128 124 120 115 109 106 106 114 118 118 115 111 110 111 105
353 2 328 97 253 270 207 148 134 125 95 73 115 55 51 147 110 135 137 131 128 134 129 143 142 142 143 145 143 143 143 140 135 134 135 132 129 125 122 122 121 124 124 124 121 118 110 103 89
84 297 298 236 245 271 305 105 101 134 125 111 113 138 90 53 118 129 134 135 136 125 135 145 143 144 146 148 145 148 147 145 141 138 138 137 137 133 133 134 129 129 128 127 127 123 123 122 104
303 117 351 296 304 224 81 61 35 100 131 131 92 116 113 136 129 139 132 137 130 133 139 143 147 148 148 148 147 150 151 148 147 145 149 145 142 142 139 137 135 129 124 125 132 135 132 125 113
187 68 248 291 291 291 177 154 119 35 50 59 132 118 137 133 142 135 132 124 130 133 133 140 153 152 147 147 150 150 151 151 153 154 153 150 149 147 145 141 136 130 133 137 140 143 146 148 160
162 133 295 269 290 311 224 94 126 94 59 31 116 136 160 164 137 124 122 123 130 131 137 143 143 149 152 156 155 153 155 157 158 157 155 156 157 153 152 146 142 141 145 152 154 159 159 158 183
333 338 274 273 297 318 96 73 1 97 89 47 82 95 133 143 123 121 115 115 124 136 147 149 149 155 156 157 164 159 159 162 160 160 160 152 158 155 150 159 154 151 158 163 166 170 175 177 213
141 142 239 229 359 25 336 105 104 69 90 121 112 128 139 141 137 141 143 148 151 160 170 163 159 161 158 168 161 162 167 165 169 168 166 164 162 166 170 170 164 163 159 167 176 178 190 213 248
245 218 253 276 284 17 355 356 145 134 3 188 158 156 154 160 158 160 169 173 181 170 165 172 169 163 165 167 163 167 166 166 173 169 170 177 171 178 171 151 159 162 165 157 162 190 214 230 231
260 256 242 270 173 110 325 317 344 137 218 243 125 182 161 169 177 181 183 190 175 177 170 171 170 173 171 157 168 173 172 174 178 179 174 182 183 183 161 162 164 162 169 178 180 183 201 227 228
267 266 257 264 288 180 150 295 272 294 296 324 329 135 187 180 191 199 196 191 182 176 173 176 172 176 180 168 168 174 182 182 181 178 179 186 185 185 166 168 171 175 173 188 186 194 202 216 228
276 283 275 249 301 274 218 230 246 278 279 269 272 263 225 189 197 208 211 231 166 181 178 172 177 178 181 185 172 176 180 183 182 183 184 189 192 181 180 178 178 186 184 187 190 199 193 216 219
266 285 299 284 296 279 278 298 249 244 252 238 231 242 240 219 224 217 219 224 218 182 176 175 177 177 183 189 166 177 182 180 185 190 185 189 197 187 189 171 183 187 189 186 196 201 185 198 201
314 302 263 231 273 269 182 261 253 253 232 236 230 245 236 216 206 215 221 212 216 160 172 175 175 179 181 190 181 178 184 179 190 189 188 188 196 193 192 187 182 191 184 188 191 201 201 199 185
280 246 279 287 241 245 197 243 234 244 264 251 217 232 246 238 239 217 206 216 203 157 169 176 175 180 184 190 187 178 176 186 191 189 189 189 194 202 186 195 197 172 185 181 180 185 157 166 166
220 238 250 244 255 232 247 223 234 247 236 231 204 228 248 250 246 229 234 213 197 155 168 175 179 182 183 183 187 187 167 188 177 192 186 186 193 197 196 187 189 187 175 176 173 158 171 166 181
246 245 248 253 248 247 245 200 216 235 238 238 229 217 227 226 229 226 227 238 199 178 176 181 177 177 175 177 179 188 199 167 189 176 199 180 190 195 198 195 178 170 167 178 177 162 178 206 160
242 256 264 286 279 248 254 215 213 214 231 228 208 233 232 233 229 221 229 215 207 163 154 164 176 172 181 184 187 188 193 185 163 180 182 192 185 191 196 188 183 172 162 169 175 157 162 158 176
237 233 249 252 286 284 308 293 254 260 233 252 246 228 223 215 213 216 222 216 194 163 157 151 170 175 178 179 164 113 116 106 161 187 195 190 183 187 193 185 179 171 173 175 188 174 157 167 189
243 241 242 252 263 264 94 276 267 255 248 253 253 247 230 226 207 201 203 200 172 169 137 133 140 150 169 172 177 184 185 188 200 195 190 183 172 181 181 179 172 174 171 177 175 182 160 130 166
248 245 241 246 241 252 275 279 236 248 272 274 259 254 225 210 194 203 209 150 119 117 110 104 106 129 162 177 185 182 195 177 152 143 173 172 151 170 169 165 164 174 172 165 167 171 168 163 164
232 238 259 277 226 247 239 220 251 230 229 264 275 261 222 199 209 212 119 118 120 102 94 96 87 219 225 183 187 186 175 148 136 126 126 142 148 150 150 147 171 194 170 176 168 170 172 175 148
235 205 228 248 236 240 188 253 244 242 223 239 247 253 230 186 134 131 130 132 131 120 116 99 54 36 253 194 166 160 164 159 157 159 150 157 149 142 174 163 183 183 172 166 138 152 153 173 172
231 218 193 211 222 244 242 249 238 219 236 241 237 248 180 143 137 142 142 138 132 128 113 99 92 91 63 96 112 120 138 156 163 164 157 167 169 156 151 148 151 141 153 141 138 141 156 139 132
231 231 228 242 271 176 238 268 275 246 250 237 222 158 137 133 149 152 142 136 131 129 135 137 140 126 136 131 135 137 141 134 136 130 147 156 153 158 160 159 155 166 158 150 158 168 162 158 154
218 223 214 216 222 236 239 258 239 267 241 227 196 175 170 152 143 138 132 139 139 134 126 128 129 150 155 166 176 163 146 132 135 134 142 161 156 158 158 155 153 153 158 141 150 154 153 143 150
220 228 218 205 209 219 246 252 223 266 285 2 237 200 161 167 158 146 147 140 133 125 131 134 146 145 147 143 138 132 133 127 126 129 135 143 142 154 155 157 151 153 154 158 150 150 148 153 154
220 223 219 207 225 214 223 239 122 219 232 354 234 182 179 165 181 152 147 141 142 142 141 142 155 146 153 142 136 138 134 136 135 138 142 143 144 146 152 155 158 152 152 139 141 149 158 162 172